Simultaneous Nadir Overpasses (SNOs) Predictions

Prediction of SNOs between METOP-B and TERRA Satellite Orbit:

Table of predicted SNOs for the next 14.0 days since TLE Epoch: 1/24/2015
Index Date (METOP-B) Time (METOP-B) Lat,Lon (METOP-B) SZA (METOP-B ) Date (TERRA) Time (TERRA) Lat,Lon (TERRA) SZA (TERRA ) Distance(km) Time Diff (sec)
1 01/25/2015 16:15:07 81.27, -17.52 102.43 01/25/2015 16:15:55 81.27, -17.43 102.46 1.58 48
2 01/25/2015 17:05:46 -81.28, 150.43 77.51 01/25/2015 17:05:21 -81.29, 150.50 77.51 1.40 25
3 01/28/2015 11:49:29 81.28, 49.27 101.75 01/28/2015 11:50:09 81.28, 49.16 101.75 1.82 40
4 01/28/2015 12:40:09 -81.28,-143.17 78.24 01/28/2015 12:39:36 -81.27,-143.25 78.27 1.53 33
5 01/31/2015 07:23:52 81.28, 115.62 100.97 01/31/2015 07:24:23 81.28, 115.59 100.98 0.48 31
6 01/31/2015 08:14:32 -81.28, -76.82 79.02 01/31/2015 08:13:50 -81.28, -76.79 79.04 0.60 42
7 02/03/2015 02:58:15 81.27,-178.07 100.15 02/03/2015 02:58:37 81.27,-178.13 100.15 1.15 22
8 02/03/2015 03:48:54 -81.28, -10.11 79.80 02/03/2015 03:48:03 -81.29, -10.11 79.81 0.58 51
9 02/05/2015 22:32:37 81.27,-111.81 99.29 02/05/2015 22:32:49 81.27,-111.62 99.31 3.15 12




NCC Satellite Simultaneous Nadir Overpasses (SNOs) Prediction Service
